Paganella, Italy

1:14 PM CEST on August 24, 2016 (GMT +0200)
Paganella

Weather History for LIVP - November, 2012

Change the Weather History Date:

Sunday, November 11, 2012

  Actual Average Record
Temperature  
Mean Temperature 34 °F -  
Max Temperature 38 °F 33 °F 51 °F (2015)
Min Temperature 30 °F 24 °F 19 °F (2013)
Degree Days  
Heating Degree Days 31    
Moisture  
Dew Point 35 °F    
Average Humidity 100    
Maximum Humidity 100    
Minimum Humidity 97    
Precipitation  
Precipitation 1.10 in 0.06 in - ()
Sea Level Pressure  
Sea Level Pressure 29.87 in    
Wind  
Wind Speed 17 mph ()    
Max Wind Speed 33 mph    
Max Gust Speed 54 mph    
Visibility 0.1 miles    
Events Fog , Rain , Snow    
Averages and records for this station are not official NWS values.
T = Trace of Precipitation, MM = Missing Value Source: Averaged Metar Reports

Daily Weather History Graph

Daily Weather History Graph

Search for Another Location

Airport or City:

Trip Planner

Search our weather history database for the weather conditions in past years. The results will help you decide how hot, cold, wet, or windy it might be!

Date:

Astronomy

Nov. 11, 2012 Rise Set
Actual Time 7:11 AM CET 4:47 PM CET
Civil Twilight 6:39 AM CET 5:20 PM CET
Nautical Twilight 6:03 AM CET 5:56 PM CET
Astronomical Twilight 5:27 AM CET 6:31 PM CET
Moon 3:57 AM CET (11/11) 3:07 PM CET (11/11)
Length of Visible Light 10h 40m
Length of Day
9h 36m
Waning Crescent, 9% of the Moon is Illuminated
Nov 11
Waning Crescent
Nov 13
New
Nov 20
First Quarter
Nov 28
Full
Dec 6
Last Quarter

Hourly Weather History & Observations

Time (CET) Temp. Windchill Dew Point Humidity Pressure Visibility Wind Dir Wind Speed Gust Speed Precip Events Conditions
12:55 AM 30.2 °F 18.1 °F 30.2 °F 100% 29.86 in - SE 18.4 mph 31.1 mph N/A Fog Light Freezing Fog
1:00 AM 31 °F - 31 °F 97%  in 0 mi SE 18.4 mph - - Snow Light Snow
1:55 AM 32.0 °F 18.9 °F 32.0 °F 100% 29.86 in - SE 24.2 mph - N/A Fog Light Freezing Fog
2:55 AM 32.0 °F 22.1 °F 32.0 °F 100% 29.86 in - SE 13.8 mph 28.8 mph N/A Fog Light Freezing Fog
3:55 AM 32.0 °F 25.6 °F 32.0 °F 100% 29.86 in - SSE 6.9 mph - N/A Fog Light Freezing Fog
4:00 AM 32 °F - 32 °F 99%  in 0 mi SSE 6.9 mph - - Snow Light Snow
4:55 AM 32.0 °F 22.1 °F 32.0 °F 100% 29.83 in - ESE 13.8 mph 25.3 mph N/A Fog Fog
5:55 AM 33.8 °F 22.5 °F 33.8 °F 100% 29.80 in - SE 19.6 mph 35.7 mph N/A Fog , Rain Rain
6:55 AM 35.6 °F 28.6 °F 35.6 °F 100% 29.80 in 0.0 mi SSE 9.2 mph 35.7 mph N/A Fog , Rain Light Rain
7:00 AM 35 °F - 35 °F 100%  in 0 mi SSE 9.2 mph - - Rain Light Rain
7:55 AM 35.6 °F 26.2 °F 35.6 °F 100% 29.80 in 0.1 mi SE 15.0 mph - N/A Fog , Rain Light Rain
8:55 AM 35.6 °F 21.9 °F 35.6 °F 100% 29.80 in 0.1 mi SSE 33.4 mph 54.1 mph N/A Fog , Rain Rain
9:55 AM 37.4 °F 25.4 °F 37.4 °F 100% 29.83 in 0.0 mi SE 27.6 mph 39.1 mph N/A Fog , Rain Rain
10:00 AM 37 °F - 37 °F 99%  in 0 mi SE 27.6 mph - - Rain Rain
10:55 AM 35.6 °F 23.4 °F 35.6 °F 100% 29.80 in 0.0 mi SE 25.3 mph 39.1 mph N/A Fog , Rain Rain
11:55 AM 37.4 °F 26.6 °F 37.4 °F 100% 29.80 in 0.0 mi SSE 21.9 mph 36.8 mph N/A Fog , Rain Rain
12:55 PM 37.4 °F 26.6 °F 37.4 °F 100% 29.80 in 0.0 mi South 21.9 mph - N/A Fog , Rain Rain
1:00 PM 37 °F - 37 °F 100%  in 0 mi South 21.9 mph - - Rain Rain
1:55 PM 37.4 °F 26.9 °F 37.4 °F 100% 29.83 in 0.0 mi South 20.7 mph 35.7 mph N/A Fog , Rain Rain
2:55 PM 37.4 °F 27.2 °F 37.4 °F 100% 29.83 in 0.0 mi South 19.6 mph 33.4 mph N/A Fog , Rain Light Rain
3:55 PM 37.4 °F 28.2 °F 37.4 °F 100% 29.86 in 0.0 mi South 16.1 mph - N/A Fog , Rain Light Rain
4:00 PM 37 °F - 37 °F 100%  in 0 mi South 16.1 mph - - Rain Light Rain
4:55 PM 37.4 °F 27.5 °F 37.4 °F 100% 29.89 in 0.0 mi SSW 18.4 mph - N/A Fog , Rain Light Rain
5:55 PM 37.4 °F 26.4 °F 37.4 °F 100% 29.92 in 0.0 mi SSW 23.0 mph 34.5 mph N/A Fog , Rain Light Rain
6:55 PM 37.4 °F 26.6 °F 37.4 °F 100% 29.95 in 0.0 mi SSW 21.9 mph 34.5 mph N/A Fog , Rain Light Rain
7:00 PM 37 °F - 37 °F 100%  in 0 mi SSW 21.9 mph - - Rain Light Rain
7:55 PM 37.4 °F 25.9 °F 37.4 °F 100% 29.95 in 0.0 mi SSW 25.3 mph 36.8 mph N/A Fog , Rain Light Rain
8:55 PM 35.6 °F 24.5 °F 35.6 °F 100% 29.98 in 0.0 mi SW 20.7 mph 36.8 mph N/A Fog Fog
9:55 PM 35.6 °F 25.2 °F 35.6 °F 100% 30.01 in 0.6 mi SSW 18.4 mph 31.1 mph N/A Fog Fog
10:00 PM 36 °F - 36 °F 98%  in 1 mi SSW 18.4 mph - - Fog Heavy Fog
10:55 PM 35.6 °F 24.5 °F 35.6 °F 100% 30.01 in - SSW 20.7 mph - N/A   Clear
11:55 PM 35.6 °F 25.9 °F 35.6 °F 100% 30.04 in 0.0 mi SSW 16.1 mph - N/A Fog Fog